FW9125 Weather Reports


time (UTC)temp
C
wind
direction
speed
KPH
gust
KPH
rain 1hr
cm
rain 24hr
cm
rain mn
cm
humidity
%
barometer
mb
20260502164037 18 63 8.0 14.5 0.00 0.00 0.00 82 1020.4
20260502163536 18 97 9.7 16.1 0.00 0.00 0.00 82 1020.5
20260502163036 18 103 9.7 16.1 0.00 0.00 0.00 81 1020.3
20260502162536 18 91 11.3 14.5 0.00 0.00 0.00 82 1020.5
20260502162036 18 102 11.3 14.5 0.00 0.00 0.00 81 1020.5
20260502161536 18 73 4.8 12.9 0.00 0.00 0.00 82 1020.6
20260502161037 18 106 6.4 12.9 0.00 0.00 0.00 81 1020.7
20260502160537 18 174 8.0 12.9 0.00 0.00 0.00 82 1020.8
20260502152037 18 96 12.9 17.7 0.00 0.00 0.00 81 1020.9
20260502151537 18 128 11.3 17.7 0.00 0.00 0.00 81 1021.1
20260502151043 18 92 11.3 17.7 0.00 0.00 0.00 80 1021.2
20260502150536 18 113 11.3 17.7 0.00 0.00 0.00 80 1021.2
20260502123537 18 75 14.5 20.9 0.00 0.00 0.00 83 1022.6
20260502123037 18 87 11.3 20.9 0.00 0.00 0.00 83 1022.6
20260502122537 18 111 14.5 19.3 0.00 0.00 0.00 83 1022.7
20260502122037 18 135 14.5 20.9 0.00 0.00 0.00 84 1022.7
20260502121536 18 101 14.5 20.9 0.00 0.00 0.00 85 1022.7
20260502121037 18 109 14.5 19.3 0.00 0.00 0.00 84 1022.7
20260502120536 18 123 11.3 19.3 0.00 0.00 0.00 84 1022.7
20260502115536 18 60 14.5 22.5 0.00 0.00 0.00 84 1022.6
20260502115320 18 99 14.5 22.5 0.00 0.00 0.00 84 1022.7
20260502114536 18 93 14.5 22.5 0.00 0.00 0.00 84 1022.7
20260502114034 18 148 16.1 22.5 0.00 0.00 0.00 84 1022.8
20260502113814 18 108 17.7 24.1 0.00 0.00 0.00 84 1022.8
20260502113035 18 114 11.3 24.1 0.00 0.00 0.00 84 1022.8
20260502112535 18 115 16.1 24.1 0.00 0.00 0.00 84 1022.8
20260502112035 18 94 14.5 24.1 0.00 0.00 0.00 83 1022.7
20260502111535 18 49 12.9 20.9 0.00 0.00 0.00 84 1022.7
20260502111035 18 70 11.3 24.1 0.00 0.00 0.00 83 1022.8
20260502110535 18 98 14.5 24.1 0.00 0.00 0.00 84 1022.9
20260502110312 18 99 14.5 22.5 0.00 0.00 0.00 84 1022.9
20260502105535 18 81 14.5 20.9 0.00 0.00 0.00 83 1023.0
20260502105035 18 103 14.5 19.3 0.00 0.00 0.00 83 1023.1
20260502104823 18 89 11.3 20.9 0.00 0.00 0.00 83 1023.2
20260502104035 18 86 14.5 20.9 0.00 0.00 0.00 83 1023.3
20260502103535 18 114 11.3 20.9 0.00 0.00 0.00 82 1023.2
20260502103037 18 100 14.5 20.9 0.00 0.00 0.00 82 1023.1
20260502102536 18 104 14.5 20.9 0.00 0.00 0.00 82 1023.1
20260502102034 18 86 12.9 22.5 0.00 0.00 0.00 82 1023.1
20260502101535 18 103 12.9 22.5 0.00 0.00 0.00 81 1023.1
20260502101035 18 87 14.5 20.9 0.00 0.00 0.00 81 1023.1
20260502100539 18 112 9.7 17.7 0.00 0.00 0.00 81 1023.3
20260502100316 18 101 12.9 17.7 0.00 0.00 0.00 81 1023.3
20260502091035 18 91 9.7 12.9 0.00 0.00 0.00 83 1023.5
20260502090535 18 111 6.4 14.5 0.00 0.00 0.00 84 1023.6
20260502071314 17 84 8.0 11.3 0.00 0.00 0.00 80 1023.6
20260502070537 17 79 6.4 9.7 0.00 0.00 0.00 79 1023.6
20260502070037 17 100 6.4 6.4 0.00 0.00 0.00 79 1023.7
20260502065826 17 69 3.2 9.7 0.00 0.00 0.00 79 1023.6
20260502065318 17 46 4.8 11.3 0.00 0.00 0.00 79 1023.5
20260502064544 17 75 8.0 12.9 0.00 0.00 0.00 79 1023.5
20260502064037 17 56 6.4 12.9 0.00 0.00 0.00 79 1023.4
20260502063539 17 84 6.4 11.3 0.00 0.00 0.00 79 1023.4
20260502063036 17 59 9.7 12.9 0.00 0.00 0.00 79 1023.4
20260502062612 17 64 9.7 11.3 0.00 0.00 0.00 79 1023.4
20260502062600 17 68 8.0 12.9 0.00 0.00 0.00 79 1023.4
20260502061536 17 65 6.4 11.3 0.00 0.00 0.00 80 1023.4
20260502061035 17 70 9.7 11.3 0.00 0.00 0.00 80 1023.3
20260502060534 17 75 6.4 11.3 0.00 0.00 0.00 80 1023.3
20260502060035 17 89 8.0 11.3 0.00 0.00 0.00 80 1023.3
20260502055537 17 61 6.4 9.7 0.00 0.00 0.00 81 1023.3
20260502055036 17 75 6.4 9.7 0.00 0.00 0.00 81 1023.3
20260502054536 17 62 6.4 9.7 0.00 0.00 0.00 81 1023.3
20260502054036 17 54 6.4 9.7 0.00 0.00 0.00 81 1023.3
20260502053535 17 54 6.4 11.3 0.00 0.00 0.00 81 1023.3
20260502053035 17 57 8.0 11.3 0.00 0.00 0.00 81 1023.2
20260502052535 17 53 6.4 12.9 0.00 0.00 0.00 81 1023.2
20260502052036 17 41 9.7 12.9 0.00 0.00 0.00 81 1023.1
20260502051536 17 53 8.0 14.5 0.00 0.00 0.00 82 1023.1
20260502051036 17 65 11.3 14.5 0.00 0.00 0.00 81 1023.2
20260502050627 17 60 4.8 11.3 0.00 0.00 0.00 82 1023.1
20260502050616 17 77 4.8 9.7 0.00 0.00 0.00 82 1023.1
20260502045535 17 56 6.4 11.3 0.00 0.00 0.00 82 1023.1
20260502045039 17 63 6.4 9.7 0.00 0.00 0.00 82 1023.1
20260502044535 17 66 8.0 9.7 0.00 0.00 0.00 82 1023.1
20260502044035 17 75 6.4 9.7 0.00 0.00 0.00 82 1023.0
20260502043535 17 59 6.4 12.9 0.00 0.00 0.00 81 1023.0
20260502043036 17 79 9.7 12.9 0.00 0.00 0.00 81 1023.0
20260502042820 17 68 8.0 12.9 0.00 0.00 0.00 81 1023.0
20260502042035 17 64 9.7 14.5 0.00 0.00 0.00 81 1022.9
20260502041535 17 51 8.0 14.5 0.00 0.00 0.00 82 1022.9
20260502041035 17 64 8.0 14.5 0.00 0.00 0.00 82 1022.9
20260502040535 17 68 9.7 14.5 0.00 0.00 0.00 82 1023.0
20260502040414 17 70 6.4 12.9 0.00 0.00 0.00 82 1023.1
20260502040410 17 60 6.4 12.9 0.00 0.00 0.00 82 1023.0
20260502035036 17 56 9.7 12.9 0.00 0.00 0.00 82 1023.1
20260502034536 17 58 8.0 14.5 0.00 0.00 0.00 83 1023.1
20260502034035 17 57 8.0 16.1 0.00 0.00 0.00 83 1023.0
20260502033535 17 67 11.3 16.1 0.00 0.00 0.00 82 1023.0
20260502033035 17 70 11.3 17.7 0.00 0.00 0.00 82 1023.0
20260502032536 17 51 12.9 17.7 0.00 0.00 0.00 83 1023.1
20260502032309 17 49 11.3 16.1 0.00 0.00 0.00 83 1023.1
20260502031540 17 53 8.0 16.1 0.00 0.00 0.00 83 1023.2
20260502031035 17 66 11.3 17.7 0.00 0.00 0.00 83 1023.1
20260502030537 17 51 11.3 17.7 0.00 0.00 0.00 83 1023.3
20260502030312 17 56 14.5 17.7 0.00 0.00 0.00 83 1023.3
20260502025612 17 67 12.9 19.3 0.00 0.00 0.00 82 1023.4
20260502025601 17 62 11.3 19.3 0.00 0.00 0.00 83 1023.3
20260502024813 17 72 11.3 17.7 0.00 0.00 0.00 82 1023.4
20260502024035 17 65 11.3 17.7 0.00 0.00 0.00 81 1023.4
20260502023850 17 72 11.3 16.1 0.00 0.00 0.00 80 1023.3
20260502023845 17 64 12.9 16.1 0.00 0.00 0.00 81 1023.3
20260502022535 17 66 8.0 14.5 0.00 0.00 0.00 80 1023.3
20260502022035 17 56 9.7 16.1 0.00 0.00 0.00 80 1023.3
20260502021613 17 70 9.7 12.9 0.00 0.00 0.00 80 1023.4
20260502021601 17 64 9.7 16.1 0.00 0.00 0.00 80 1023.3
20260502020536 17 68 8.0 12.9 0.00 0.00 0.00 80 1023.4
20260502020035 17 53 9.7 12.9 0.00 0.00 0.00 80 1023.3
20260502015535 17 58 6.4 12.9 0.00 0.00 0.00 81 1023.4
20260502015035 17 48 9.7 19.3 0.00 0.00 0.00 81 1023.4
20260502014536 17 69 11.3 19.3 0.00 0.00 0.00 81 1023.3
20260502014035 17 48 12.9 17.7 0.00 0.00 0.00 82 1023.3
20260502013610 17 51 14.5 19.3 0.00 0.00 0.00 82 1023.4
20260502013557 17 67 11.3 19.3 0.00 0.00 0.00 82 1023.4
20260502012532 17 60 11.3 17.7 0.00 0.00 0.00 82 1023.4
20260502012034 17 50 12.9 17.7 0.00 0.00 0.00 81 1023.5
20260502011533 17 57 9.7 14.5 0.00 0.00 0.00 81 1023.6
20260502011033 17 79 11.3 17.7 0.00 0.00 0.00 81 1023.6
20260502010532 17 72 12.9 17.7 0.00 0.00 0.00 80 1023.6
20260502010028 17 63 9.7 16.1 0.00 0.00 0.00 80 1023.7
20260502005523 17 70 12.9 16.1 0.00 0.00 0.00 80 1023.7
20260502005022 17 73 6.4 9.7 0.00 0.00 0.00 80 1023.8
20260502004840 17 53 9.7 12.9 0.00 0.00 0.00 80 1023.9
20260502004836 17 65 6.4 11.3 0.00 0.00 0.00 80 1023.8
20260502003524 17 60 9.7 12.9 0.00 0.00 0.00 79 1023.8
20260502003308 17 51 8.0 11.3 0.00 0.00 0.00 78 1023.9
20260502002524 17 64 8.0 11.3 0.00 0.00 0.00 78 1024.0
20260502002023 17 50 9.7 12.9 0.00 0.00 0.00 77 1024.0
20260502001524 17 52 11.3 12.9 0.00 0.00 0.00 77 1024.1
20260502001024 17 70 8.0 11.3 0.00 0.00 0.00 77 1024.1
20260502000521 17 51 6.4 9.7 0.00 0.00 0.00 76 1024.2
20260502000021 17 66 8.0 9.7 0.00 0.00 0.00 76 1024.3
20260501235812 17 70 6.4 9.7 0.00 0.00 0.00 76 1024.3
20260501235305 17 43 6.4 9.7 0.00 0.00 0.00 76 1024.4
20260501234523 17 70 4.8 8.0 0.00 0.00 0.00 76 1024.5
20260501234027 17 64 6.4 9.7 0.00 0.00 0.00 76 1024.4
20260501233812 17 56 6.4 9.7 0.00 0.00 0.00 76 1024.5
20260501233022 17 65 3.2 6.4 0.00 0.00 0.00 76 1024.4
20260501232524 17 64 4.8 6.4 0.00 0.00 0.00 76 1024.4
20260501232021 17 55 3.2 8.0 0.00 0.00 0.00 76 1024.4
20260501231522 17 48 6.4 9.7 0.00 0.00 0.00 76 1024.4
20260501231021 17 49 6.4 9.7 0.00 0.00 0.00 77 1024.5
20260501230521 17 45 8.0 9.7 0.00 0.00 0.00 78 1024.4
20260501230021 17 56 6.4 9.7 0.00 0.00 0.00 79 1024.5
20260501225523 17 53 6.4 8.0 0.00 0.00 0.00 80 1024.5
20260501225309 17 60 6.4 9.7 0.00 0.00 0.00 81 1024.5
20260501224522 17 49 6.4 9.7 0.00 0.00 0.00 82 1024.5
20260501224022 17 65 6.4 9.7 0.00 0.00 0.00 82 1024.5
20260501223521 17 63 6.4 9.7 0.00 0.00 0.00 82 1024.5
20260501223021 17 69 6.4 11.3 0.00 0.00 0.00 82 1024.4
20260501222522 17 82 6.4 12.9 0.00 0.00 0.00 82 1024.4
20260501222021 17 84 9.7 12.9 0.00 0.00 0.00 82 1024.3
20260501221522 17 62 9.7 12.9 0.00 0.00 0.00 83 1024.2
20260501221022 17 69 8.0 12.9 0.00 0.00 0.00 84 1024.3
20260501220541 17 60 9.7 14.5 0.00 0.00 0.00 84 1024.3
20260501220445 17 68 11.3 14.5 0.00 0.00 0.00 85 1024.3
20260501215521 17 63 8.0 9.7 0.00 0.00 0.00 85 1024.4
20260501215024 17 29 6.4 9.7 0.00 0.00 0.00 86 1024.4
20260501214806 17 34 6.4 12.9 0.00 0.00 0.00 86 1024.5
20260501214022 17 57 9.7 12.9 0.00 0.00 0.00 87 1024.5
20260501213522 17 53 6.4 14.5 0.00 0.00 0.00 88 1024.4
20260501213021 17 53 8.0 16.1 0.00 0.00 0.00 88 1024.4
20260501212811 17 52 9.7 16.1 0.00 0.00 0.00 88 1024.4
20260501212021 17 69 11.3 19.3 0.00 0.00 0.00 88 1024.5
20260501211522 17 62 9.7 19.3 0.00 0.00 0.00 88 1024.5
20260501211021 17 68 14.5 17.7 0.00 0.00 0.00 88 1024.4
20260501210811 17 84 9.7 16.1 0.00 0.00 0.00 87 1024.5
20260501210021 17 88 9.7 14.5 0.00 0.00 0.00 87 1024.4
20260501205521 17 42 11.3 17.7 0.00 0.00 0.00 87 1024.4
20260501205305 17 58 12.9 17.7 0.00 0.00 0.00 87 1024.5
20260501204522 17 68 9.7 19.3 0.00 0.00 0.00 87 1024.5
20260501204021 17 54 11.3 19.3 0.00 0.00 0.00 87 1024.5
20260501203521 17 59 9.7 16.1 0.00 0.00 0.00 87 1024.5
20260501203022 17 56 11.3 16.1 0.00 0.00 0.00 86 1024.3
20260501202521 17 43 9.7 20.9 0.00 0.00 0.00 86 1024.3
20260501202021 17 80 11.3 20.9 0.00 0.00 0.00 86 1024.3
20260501201525 17 107 14.5 20.9 0.00 0.00 0.00 86 1024.3
20260501201302 17 62 12.9 17.7 0.00 0.00 0.00 86 1024.2
20260501200521 17 72 9.7 14.5 0.00 0.00 0.00 86 1024.2
20260501200021 17 58 11.3 17.7 0.00 0.00 0.00 86 1024.2
20260501195521 17 37 12.9 17.7 0.00 0.00 0.00 87 1024.0
20260501195021 17 68 11.3 17.7 0.00 0.00 0.00 87 1024.0
20260501194521 17 54 14.5 20.9 0.00 0.00 0.00 87 1023.9
20260501194309 17 55 14.5 20.9 0.00 0.00 0.00 87 1023.9
20260501193522 17 79 16.1 20.9 0.00 0.00 0.00 87 1023.9
20260501193022 17 61 12.9 17.7 0.00 0.00 0.00 87 1023.8
20260501192521 17 57 11.3 19.3 0.00 0.00 0.00 87 1023.8
20260501192021 17 51 12.9 22.5 0.00 0.00 0.00 87 1023.7
20260501191521 17 51 12.9 24.1 0.00 0.00 0.00 87 1023.7
20260501191309 17 65 16.1 24.1 0.00 0.00 0.00 87 1023.6
20260501190521 17 58 17.7 24.1 0.00 0.00 0.00 86 1023.6
20260501190309 17 98 16.1 24.1 0.00 0.00 0.00 86 1023.5
20260501185527 17 63 16.1 24.1 0.00 0.00 0.00 86 1023.4
20260501185023 17 65 17.7 27.4 0.00 0.00 0.00 86 1023.4
20260501184521 17 73 20.9 27.4 0.00 0.00 0.00 86 1023.3
20260501184028 17 73 19.3 25.7 0.00 0.00 0.00 85 1023.3
20260501183759 17 71 19.3 32.2 0.00 0.00 0.00 86 1023.2
20260501183301 17 105 22.5 32.2 0.00 0.00 0.00 85 1023.1
20260501182522 17 74 22.5 30.6 0.00 0.00 0.00 85 1023.0
20260501182034 17 64 20.9 29.0 0.00 0.00 0.00 84 1023.0
20260501181524 17 67 17.7 33.8 0.00 0.00 0.00 84 1022.9
20260501181021 17 57 24.1 33.8 0.00 0.00 0.00 84 1022.8
20260501180531 17 84 27.4 33.8 0.00 0.00 0.00 83 1022.8
20260501180033 17 70 22.5 35.4 0.00 0.00 0.00 83 1022.8
20260501175523 17 66 20.9 37.0 0.00 0.00 0.00 84 1022.7
20260501175033 17 83 25.7 37.0 0.00 0.00 0.00 83 1022.6
20260501174520 17 83 27.4 38.6 0.00 0.00 0.00 83 1022.6
20260501174021 17 39 29.0 38.6 0.00 0.00 0.00 83 1022.6
20260501173601 17 82 24.1 35.4 0.00 0.00 0.00 82 1022.5
20260501173538 17 82 29.0 37.0 0.00 0.00 0.00 83 1022.6
20260501172522 17 60 27.4 35.4 0.00 0.00 0.00 82 1022.6
20260501172021 17 56 22.5 35.4 0.00 0.00 0.00 82 1022.5
20260501171520 17 46 24.1 35.4 0.00 0.00 0.00 81 1022.5